Flag for Mexico Weather past 2 weeks in Matamoros, Tamaulipas, Mexico

Now
81 °F

Clear.


Feels Like: 89 °F
Forecast: 79 / 94 °F
Wind: 8 mph from Southeast

Location: Brownsville / South Padre Island International Airport

Current Time: Jul 28, 2015 at 4:22:37 AM

Latest Report: Jul 28, 2015 at 3:53 AM


Visibility: 9 mi

Pressure: 29.90 "Hg

Humidity: 91%

Dew point: 78 °F

Location of MatamorosLocation

Historic Weather in Matamoros — Graph

°F

Matamoros temperature yesterday

Maximum temperature yesterday: 93 °F (at 3:53 PM)
Minimum temperature yesterday: 81 °F (at 6:53 AM)
Average temperature yesterday: 87 °F

Past Weeks' High & Low Weather Summary

 TemperatureHumidityPressure
High95 °F (Jul 24, 3:53 PM)97% (Jul 20, 5:53 AM)30.03 "Hg (Jul 20, 5:53 AM)
Low76 °F (Jul 14, 1:53 AM)44% (Jul 14, 4:53 PM)29.83 "Hg (Jul 21, 6:53 PM)
Average85 °F73%29.92 "Hg
* Reported Jul 13 2:53 AM — Jul 28 2:53 AM, Matamoros, Weather by CustomWeather, © 2015

Note: Actual official high and low records may vary slightly from our data, if they occured in-between our weather recording intervals... More about our weather records

Advertising

Matamoros weather history for previous 24 hours

 ConditionsComfort  
Time TempWeatherWind HumidityBarometerVisibility
2:53 AM
Tue, Jul 28
81 °FPassing clouds.8 mph91%29.91 "Hg10 mi
1:53 AM82 °FPassing clouds.13 mph88%29.91 "Hg10 mi
12:53 AM82 °FPassing clouds.13 mph88%29.91 "Hg10 mi
11:53 PM
Mon, Jul 27
82 °FClear.12 mph88%29.92 "Hg10 mi
10:53 PM83 °FPassing clouds.10 mph85%29.91 "Hg10 mi
9:53 PM83 °FClear.13 mph82%29.89 "Hg10 mi
8:53 PM83 °FSunny.16 mph79%29.86 "Hg10 mi
7:53 PM85 °FSunny.23 mph72%29.85 "Hg10 mi
6:53 PM88 °FSunny.17 mph63%29.84 "Hg10 mi
5:53 PM91 °FSunny.22 mph54%29.85 "Hg10 mi
4:53 PM92 °FSunny.22 mph56%29.86 "Hg10 mi
3:53 PM93 °FSunny.20 mph54%29.86 "Hg10 mi
2:53 PM92 °FPassing clouds.22 mph58%29.88 "Hg10 mi
1:53 PM92 °FPassing clouds.21 mph58%29.90 "Hg10 mi
12:53 PM91 °FScattered clouds.21 mph57%29.92 "Hg10 mi
11:53 AM90 °FPassing clouds.16 mph61%29.93 "Hg10 mi
10:53 AM86 °FPassing clouds.20 mph75%29.92 "Hg10 mi
9:53 AM84 °FPassing clouds.14 mph85%29.91 "Hg10 mi
9:00 AM84 °FMostly cloudy.13 mph85%29.91 "Hg10 mi
7:53 AM81 °FSunny.6 mph88%29.88 "Hg8 mi
6:53 AM81 °FClear.7 mph88%29.88 "Hg8 mi
5:53 AMN/AClear.8 mphN/A29.85 "Hg9 mi
4:53 AMN/AClear.9 mphN/A29.85 "Hg10 mi
Weather by CustomWeather, © 2015

See weather overviewHow to use our weather pages